CAPE
0 0 0 0 0 0 0 0 0 0 0 0 0 0 0 0 0 0 0 0 0 0 0 0 0 0 0 0 0 1 5 8 4 1 0 0 0 0 0 0 0 1 10
0 0 0 0 0 0 0 0 0 0 0 0 0 0 0 0 0 0 0 0 0 0 0 0 0 0 0 0 0 1 0 2 7 6 3 0 2 2 2 1 2 0 0
0 0 0 0 0 0 0 0 0 0 0 0 0 0 0 0 0 0 0 0 0 0 0 0 0 0 0 1 0 3 4 3 4 5 2 2 3 3 1 2 2 3 1
0 0 0 0 0 0 0 0 0 0 0 0 0 0 0 0 0 0 0 0 0 0 0 0 0 0 0 0 2 2 3 2 1 1 0 0 1 0 0 0 0 1 3
0 0 0 0 0 0 0 0 0 0 0 0 0 0 0 0 0 0 0 0 0 0 0 0 0 0 1 1 1 0 1 1 1 1 0 0 0 0 2 5 3 2 1
0 0 0 0 0 0 0 0 0 0 0 0 0 0 0 0 1 0 0 0 0 0 0 0 0 0 0 0 1 1 0 2 5 3 2 2 2 3 2 2 9 7 0
0 0 0 0 0 0 0 0 0 0 0 0 0 0 0 0 1 1 0 0 0 0 0 0 0 0 0 0 0 0 0 0 1 5 2 2 6 9 10 9 1 1 3
0 0 0 0 0 0 0 0 0 0 0 0 0 0 0 0 1 2 0 0 0 0 0 0 0 1 0 0 0 1 0 0 0 1 2 3 7 8 10 14 18 10 1
0 0 0 0 0 0 0 0 0 0 0 0 0 0 0 0 0 1 0 0 0 0 0 0 0 0 0 2 0 2 0 1 1 0 1 1 2 3 3 0 0 2 0
0 0 0 0 0 0 0 0 0 0 0 0 0 0 0 0 0 1 0 0 0 0 0 0 0 0 1 2 0 0 1 4 0 0 0 0 0 0 0 0 2 0 1
0 0 0 0 0 0 0 0 0 0 0 0 0 0 0 0 0 2 2 0 1 0 0 0 0 0 0 1 0 0 2 0 0 0 0 0 0 0 0 1 4 6 5
0 0 0 0 0 0 0 0 0 0 0 0 0 0 0 0 0 1 1 2 2 0 0 0 0 0 0 0 0 0 0 0 0 0 0 0 0 0 1 2 4 4 4
0 0 0 0 0 0 0 0 0 0 0 0 0 0 0 0 0 1 1 2 2 2 0 2 0 0 0 0 0 0 0 0 0 0 0 0 0 3 4 1 0 0 0
0 0 0 0 0 0 0 0 0 0 0 0 0 0 0 0 0 0 0 0 2 0 0 0 0 0 0 0 0 0 0 0 0 0 0 0 0 0 0 1 0 0 0
0 0 0 0 0 0 0 0 0 0 0 0 0 0 0 0 0 0 0 0 0 0 0 0 0 0 0 0 0 0 0 0 0 0 0 0 0 0 0 0 0 0 0
0 0 0 0 0 0 0 0 0 0 0 0 0 0 0 0 1 2 3 4 3 1 0 0 0 0 0 0 0 0 0 0 0 0 0 0 0 0 0 0 0 0 0
0 0 0 0 0 0 0 0 0 0 0 0 0 0 0 0 2 3 3 3 0 0 0 0 0 0 0 0 0 0 0 0 0 0 0 0 0 0 0 0 0 0 0
0 0 0 0 0 0 0 0 0 0 0 0 0 0 0 0 1 3 2 0 0 0 0 0 0 0 0 0 0 0 0 0 0 0 0 0 0 0 0 0 0 0 0
0 0 0 0 0 0 0 0 0 0 0 0 0 0 0 0 2 0 0 0 0 0 0 0 0 0 0 0 0 0 0 0 0 0 0 0 0 0 0 0 0 0 0
0 0 0 0 0 0 0 0 0 0 0 0 0 0 0 0 0 0 0 0 0 0 0 0 0 0 0 0 0 0 0 0 0 0 0 0 0 0 0 0 0 0 0
0 0 0 0 0 0 0 0 0 0 0 0 0 0 3 0 0 0 0 0 0 0 0 0 0 0 0 0 0 0 0 0 0 0 0 0 0 0 0 0 0 0 0
0 0 0 0 0 0 0 0 0 0 0 0 0 0 2 0 0 0 0 0 0 0 0 0 0 0 0 0 0 0 0 0 0 0 0 0 0 0 0 0 0 0 0
0 0 0 0 0 0 0 0 0 0 0 0 0 0 0 0 0 0 0 0 0 0 0 0 0 0 0 0 0 0 0 0 0 0 0 0 0 0 0 0 0 0 0
0 0 0 0 0 0 0 0 0 0 0 0 0 0 0 0 0 0 0 0 0 0 0 0 0 0 0 0 0 0 0 0 0 0 0 0 0 0 0 0 0 0 0
0 0 0 0 0 0 0 0 0 0 0 0 0 0 0 0 0 0 0 0 0 0 0 0 0 0 0 0 0 0 0 0 0 0 0 0 0 0 0 0 0 0 0
0 0 0 0 0 0 0 0 0 0 0 0 0 0 0 0 0 0 0 0 0 0 0 0 0 0 0 0 0 1 0 10 1 0 0 0 0 0 0 0 0 0 0
CIN
0 0 0 0 0 0 0 0 0 0 0 0 0 0 0 0 0 0 0 0 0 0 0 0 0 0 0 0 0 -1 0 0 0 0 -1 0 0 0 0 0 0 -1 -2
0 0 0 0 0 0 0 0 0 0 0 0 0 0 0 0 0 0 0 0 0 0 0 0 0 0 0 0 -1 0 0 -2 0 0 0 0 -1 0 -1 -1 0 0 0
0 0 0 0 0 0 0 0 0 0 0 0 0 0 0 0 0 0 0 0 0 0 0 0 0 0 0 0 0 0 0 0 0 0 0 -2 -2 -3 -2 -2 -1 -1 0
0 0 0 0 0 0 0 0 0 0 0 0 0 0 0 0 0 0 0 0 0 0 0 0 0 0 0 -1 0 0 0 0 0 -1 -1 -1 -1 0 -2 0 0 -2 -2
0 0 0 0 0 0 0 0 0 0 0 0 0 0 0 0 0 0 0 0 0 0 0 0 0 0 0 0 0 0 0 -1 -1 -1 0 0 0 0 0 0 -1 -2 -1
0 0 0 0 0 0 0 0 0 0 0 0 0 0 0 0 0 0 0 0 0 0 0 0 0 0 0 0 0 0 0 0 0 0 0 0 0 0 0 0 0 0 0
0 0 0 0 0 0 0 0 0 0 0 0 0 0 0 0 0 0 0 0 0 0 0 0 0 0 0 0 0 0 0 0 0 0 0 0 0 0 0 0 -1 -1 -1
0 0 0 0 0 0 0 0 0 0 0 0 0 0 0 0 0 0 0 0 0 0 0 0 0 0 0 0 0 0 0 0 0 0 0 0 0 0 0 0 0 0 -1
0 0 0 0 0 0 0 0 0 0 0 0 0 0 0 0 0 0 0 0 0 0 0 0 0 0 0 0 0 0 0 0 0 0 0 0 0 0 0 0 0 0 0
0 0 0 0 0 0 0 0 0 0 0 0 0 0 0 0 0 0 0 0 0 0 0 0 0 0 0 0 0 0 0 0 0 0 0 0 0 0 0 0 0 -1 0
0 0 0 0 0 0 0 0 0 0 0 0 0 0 0 0 0 0 0 0 0 0 0 0 0 0 0 0 0 0 0 0 0 0 0 0 0 0 0 0 0 0 0
0 0 0 0 0 0 0 0 0 0 0 0 0 0 0 0 0 0 0 0 0 0 0 0 0 0 0 0 0 0 0 0 0 0 0 0 0 0 0 0 0 0 0
0 0 0 0 0 0 0 0 0 0 0 0 0 0 0 0 0 0 0 0 0 0 0 0 0 0 0 0 0 0 0 0 0 0 0 0 0 0 0 0 0 0 0
0 0 0 0 0 0 0 0 0 0 0 0 0 0 0 0 0 0 0 0 0 0 0 0 0 0 0 0 0 0 0 0 0 0 0 0 0 0 0 0 0 0 0
0 0 0 0 0 0 0 0 0 0 0 0 0 0 0 0 0 0 0 0 0 0 0 0 0 0 0 0 0 0 0 0 0 0 0 0 0 0 0 0 0 0 0
0 0 0 0 0 0 0 0 0 0 0 0 0 0 0 0 0 0 0 0 0 0 0 0 0 0 0 0 0 0 0 0 0 0 0 0 0 0 0 0 0 0 0
0 0 0 0 0 0 0 0 0 0 0 0 0 0 0 0 0 0 0 0 0 0 0 0 0 0 0 0 0 0 0 0 0 0 0 0 0 0 0 0 0 0 0
0 0 0 0 0 0 0 0 0 0 0 0 0 0 0 0 0 0 0 0 0 0 0 0 0 0 0 0 0 0 0 0 0 0 0 0 0 0 0 0 0 0 0
0 0 0 0 0 0 0 0 0 0 0 0 0 0 0 0 0 0 0 0 0 0 0 0 0 0 0 0 0 0 0 0 0 0 0 0 0 0 0 0 0 0 0
0 0 0 0 0 0 0 0 0 0 0 0 0 0 0 0 0 0 0 0 0 0 0 0 0 0 0 0 0 0 0 0 0 0 0 0 0 0 0 0 0 0 0
0 0 0 0 0 0 0 0 0 0 0 0 0 0 0 0 0 0 0 0 0 0 0 0 0 0 0 0 0 0 0 0 0 0 0 0 0 0 0 0 0 0 0
0 0 0 0 0 0 0 0 0 0 0 0 0 0 0 0 0 0 0 0 0 0 0 0 0 0 0 0 0 0 0 0 0 0 0 0 0 0 0 0 0 0 0
0 0 0 0 0 0 0 0 0 0 0 0 0 0 0 0 0 0 0 0 0 0 0 0 0 0 0 0 0 0 0 0 0 0 0 0 0 0 0 0 0 0 0
0 0 0 0 0 0 0 0 0 0 0 0 0 0 0 0 0 0 0 0 0 0 0 0 0 0 0 0 0 0 0 0 0 0 0 0 0 0 0 0 0 0 0
0 0 0 0 0 0 0 0 0 0 0 0 0 0 0 0 0 0 0 0 0 0 0 0 0 0 0 0 0 0 0 0 0 0 0 0 0 0 0 0 0 0 0
0 0 0 0 0 0 0 0 0 0 0 0 0 0 0 0 0 0 0 0 0 0 0 0 0 0 0 0 0 0 0 0 0 0 0 0 0 0 0 0 0 0 0
Wind_Speed
5 5 6 6 6 7 7 7 6 6 7 8 8 9 9 12 12 10 10 11 11 9 9 9 10 9 7 8 8 7 7 9 12 10 11 12 15 16 17 17 16 15 12
5 5 6 6 6 6 6 7 7 7 7 8 8 9 11 11 11 11 11 10 9 10 10 10 11 9 11 10 8 11 9 9 11 18 13 12 13 15 15 18 15 14 16
5 5 5 5 5 6 6 6 7 7 8 9 9 9 11 11 11 11 10 9 9 9 9 10 10 11 10 10 9 9 8 9 10 11 13 10 11 12 15 12 14 15 13
5 5 5 5 5 5 6 6 7 6 8 8 8 9 11 10 11 11 9 9 8 9 9 10 10 11 12 11 10 11 11 10 10 10 12 11 11 12 11 14 16 12 14
5 5 5 5 4 5 6 6 6 6 7 7 7 8 9 10 9 11 9 7 8 8 8 9 8 11 16 18 10 12 12 11 10 11 11 12 12 13 14 13 15 15 15
5 5 5 5 4 5 5 5 5 6 7 7 7 7 9 8 16 18 11 7 8 8 8 9 8 10 13 19 20 21 16 13 13 12 11 15 16 17 15 14 15 17 19
6 5 4 5 5 4 4 5 5 6 5 6 6 6 7 8 16 18 15 6 7 8 9 9 9 8 11 12 16 18 15 20 18 14 15 15 19 17 18 19 17 17 18
7 6 5 6 5 4 3 5 5 4 5 4 5 6 6 7 15 17 14 6 7 7 8 8 8 9 13 15 13 13 12 12 12 11 14 15 15 18 16 17 19 20 16
8 8 7 7 4 4 4 4 3 4 5 4 4 5 5 5 13 16 11 6 7 7 8 7 8 10 22 24 14 12 12 10 13 21 22 25 25 24 22 13 12 14 15
9 8 7 6 5 5 3 4 2 3 5 3 4 5 5 5 11 15 13 5 7 7 7 8 14 18 22 22 12 11 12 14 15 15 14 15 16 16 22 12 11 14 14
8 7 6 4 3 5 3 2 2 4 3 2 3 2 4 6 6 13 15 7 6 6 7 7 8 22 21 20 19 11 15 18 16 11 11 10 11 11 11 11 12 11 14
8 7 6 3 3 4 3 2 3 2 2 3 4 4 3 4 7 11 15 14 13 6 7 7 9 19 18 18 13 21 23 17 9 9 9 10 11 11 12 13 15 14 13
7 7 5 5 4 3 5 3 3 3 3 3 3 2 1 3 3 10 12 14 12 8 7 12 17 16 16 12 18 20 15 8 9 9 10 10 11 12 15 15 15 18 17
7 7 7 5 4 2 3 3 3 3 3 3 2 2 1 2 3 4 3 4 8 8 9 7 11 11 12 11 9 10 9 9 9 9 10 11 10 11 12 12 15 15 17
6 5 6 5 5 3 4 3 3 3 3 3 1 1 2 3 4 10 10 6 5 9 5 3 4 5 6 6 6 7 7 8 8 9 10 11 12 12 12 12 13 14 14
7 5 3 4 4 3 2 2 5 4 3 3 3 2 1 6 11 12 13 14 14 13 4 2 3 5 6 6 7 7 7 8 8 9 9 10 12 12 13 12 12 12 15
6 6 3 4 4 3 3 3 2 2 2 3 2 5 6 8 11 11 12 12 11 8 1 2 2 5 6 6 6 7 8 8 10 8 9 10 11 12 14 12 12 12 14
5 5 4 3 3 3 3 2 2 2 1 2 5 6 5 10 12 10 11 8 4 5 1 2 3 3 5 6 6 7 7 8 8 8 9 10 10 10 12 12 12 14 14
5 4 3 4 3 3 2 2 2 1 1 1 2 3 5 11 11 10 9 2 3 3 3 3 3 3 3 4 6 6 7 8 8 9 8 9 10 10 12 12 12 17 18
4 6 4 3 3 3 2 2 1 1 0 1 1 2 3 3 2 2 2 2 2 3 3 3 4 4 4 3 5 5 7 8 8 8 8 9 9 9 11 13 12 14 14
4 4 5 3 3 3 2 2 2 1 2 2 3 3 11 2 3 3 4 4 3 4 4 4 4 5 4 4 4 4 6 8 8 8 8 9 9 10 10 11 12 13 14
4 4 4 3 2 2 3 2 2 2 3 3 3 4 12 1 3 4 4 5 5 5 4 4 5 4 6 7 7 7 8 9 9 9 9 9 9 11 10 11 12 13 14
4 4 3 3 3 3 2 2 3 3 3 4 3 4 3 4 4 4 5 5 5 5 4 4 4 7 6 5 6 7 8 10 9 9 10 10 11 11 10 12 13 14 13
4 4 3 3 2 3 3 3 3 4 4 4 4 5 5 5 5 6 6 5 5 5 4 5 6 9 9 8 7 8 8 10 9 10 12 11 11 13 12 13 14 15 14
4 3 3 4 4 4 3 3 4 4 5 5 5 5 5 5 5 5 5 5 5 5 8 7 7 9 11 11 12 15 16 20 15 15 10 13 15 18 15 13 15 15 15
4 5 4 3 3 3 3 4 5 5 5 5 5 5 5 5 6 6 6 5 5 7 8 8 10 13 15 13 15 17 18 19 17 19 13 11 12 12 12 15 19 14 15
Wind_Direction
67 60 62 57 53 56 56 44 39 43 33 36 39 45 40 50 37 34 36 33 34 23 25 16 16 6 14 17 4 351 353 349 320 325 322 326 326 326 325 324 320 319 299
65 67 57 53 60 64 59 54 37 46 44 48 51 50 53 45 39 39 32 28 28 30 22 22 21 16 15 5 4 8 347 337 330 319 325 325 329 325 322 324 321 315 313
80 72 67 61 61 61 61 53 51 49 43 45 49 52 59 45 35 27 28 22 24 29 24 22 20 15 11 5 2 356 353 335 323 315 314 319 320 324 322 321 316 318 316
97 88 73 65 65 66 61 62 59 54 60 54 46 54 67 48 39 29 14 25 26 35 31 24 20 25 9 6 8 358 348 339 331 324 322 322 327 330 321 322 319 316 318
115 102 95 75 62 64 66 59 57 52 60 67 62 52 64 51 34 32 10 28 34 30 29 26 22 35 15 17 358 352 345 342 334 331 325 325 333 334 330 324 311 310 311
120 115 110 98 79 72 74 72 71 61 54 52 56 67 59 50 38 33 30 22 34 26 22 20 15 21 16 5 360 356 353 347 337 331 328 326 325 325 320 318 310 312 312
133 121 103 102 93 62 70 72 52 64 61 57 55 43 76 47 35 33 32 22 31 22 22 13 10 12 0 356 354 354 354 349 344 341 332 324 316 319 314 309 305 298 292
124 125 129 110 105 96 83 83 70 73 67 56 58 53 56 42 32 32 30 25 29 21 18 13 6 8 354 354 357 351 352 345 341 337 321 313 311 317 316 311 316 299 287
150 146 136 125 117 113 94 81 55 68 73 72 75 72 56 43 28 29 33 24 18 15 7 7 358 4 356 356 355 348 341 331 332 331 326 323 324 329 333 328 333 328 315
153 143 129 138 129 116 96 90 75 76 83 72 66 79 60 60 21 26 31 20 10 9 353 360 5 2 356 354 353 352 336 339 341 334 330 325 325 327 334 337 328 321 314
135 128 127 141 119 95 111 109 86 74 82 77 68 84 64 63 20 22 15 27 15 6 351 357 357 350 351 352 358 344 342 342 337 332 322 319 326 328 329 328 322 313 310
137 140 138 148 122 133 129 92 77 73 102 88 70 53 40 55 16 17 9 14 7 9 352 349 346 345 348 351 356 348 349 347 333 327 326 331 331 329 328 321 316 309 295
139 146 145 137 143 146 99 82 97 60 65 55 64 57 5 26 28 4 5 3 359 7 344 348 343 345 351 353 350 351 351 341 335 333 332 327 326 323 320 320 317 314 305
154 155 151 141 133 75 103 100 93 62 59 58 66 28 339 5 357 310 8 347 351 359 7 355 344 350 358 356 351 350 345 339 337 332 328 323 324 325 327 327 322 323 318
147 152 147 133 106 104 86 84 93 88 113 130 174 132 68 337 313 335 349 347 346 345 38 359 338 351 348 347 347 337 335 335 335 333 326 327 327 326 327 328 320 320 318
157 151 136 119 100 106 111 126 133 110 80 90 52 61 44 336 337 332 344 342 353 352 40 341 332 339 338 335 337 333 329 329 331 327 325 323 322 323 322 322 318 317 316
135 128 113 112 118 126 116 113 117 359 30 176 16 1 351 347 338 331 346 353 349 18 63 301 297 319 322 325 327 325 322 323 322 318 320 316 317 316 321 319 320 316 316
100 104 118 121 119 121 131 129 141 153 186 292 343 327 344 340 332 341 346 21 352 345 243 253 270 279 314 314 313 312 311 312 314 313 312 308 309 311 315 315 318 315 316
140 139 135 132 120 118 139 154 160 178 219 248 335 347 2 327 323 348 349 157 226 268 274 294 269 275 269 288 298 300 298 302 303 303 298 301 305 308 309 310 310 311 313
92 132 139 135 141 159 151 154 180 191 210 305 306 271 301 347 342 297 263 241 264 259 265 262 274 273 268 264 290 289 295 297 295 294 295 297 299 303 303 306 307 308 306
146 141 152 153 160 159 152 181 189 177 228 241 245 249 278 181 249 260 277 279 262 268 268 258 268 269 258 263 266 274 284 287 286 288 291 294 299 299 298 295 297 298 298
150 151 166 170 146 164 192 174 191 211 231 246 269 272 294 353 245 253 260 263 260 249 245 249 261 243 268 272 278 282 282 282 285 286 289 293 296 294 294 293 293 294 306
155 155 158 171 181 186 191 221 219 220 239 245 253 272 270 261 255 253 258 260 260 265 257 245 255 277 270 253 257 262 270 273 275 281 286 290 290 289 290 290 292 300 302
162 166 172 182 175 194 207 229 234 231 234 245 247 249 252 253 256 257 256 257 259 262 254 254 255 264 275 272 269 266 263 266 269 273 276 280 281 285 284 285 296 293 309
163 176 185 191 195 200 217 235 234 237 240 239 248 246 245 250 258 261 260 259 260 264 276 273 267 268 270 270 269 271 270 275 274 271 265 262 266 274 281 291 294 304 299
177 180 189 190 210 214 216 231 238 235 239 245 245 247 249 254 256 257 261 256 261 268 273 275 275 274 276 277 275 276 277 280 278 275 279 276 281 287 286 287 294 297 294